Weather in Illintsi

Ukraine / Vinnytsia Region     49˚06′18″N   29˚12′30″E
temp.,
°C
wind,
m/s
gust,
m/s
humid.,
%
clouds,
%
prec.,
mm/h
press.,
hPa
HPBL,
m
1 december, tue
tue123:00−2˚n368686 0.0 1028163
02:00−3˚n368785 0.0 1027246
05:00−3˚n488844 0.0 1027263
08:00−3˚nne498822 0.0 1027347
11:00nne587354 0.0 1027563
14:00nne587267 0.0 1026626
17:00−2˚nne489283 0.0 1026362
20:00−2˚nne489582 0.1 1026328
2 december, wed
wed223:00−1˚nne359299 0.1 1027274
02:00−1˚nne3596100 0.1 1027252
05:00−1˚ne3597100 0.2 1026226
08:00−1˚ne2498100 0.3 1026141
11:00+1˚e348489 0.1 1026437
14:00+1˚ene227894 0.1 1026445
17:00−1˚ne2297100 0.1 102588
20:00−1˚nne2298100 0.2 102549
3 december, thu
thu323:00sse1198100 0.2 102565
02:00s1299100 0.3 1025104
05:00s119797 0.0 102421
08:00sse229894 0.0 102471
11:00+2˚s468696 0.0 1024537
14:00+2˚sse468193 0.0 1023574
17:00+1˚se478887 0.0 1022248
20:00+2˚se6118693 0.0 1022510
4 december, fri
fri423:00+3˚se61284100 0.0 1021534
02:00+4˚se71481100 0.1 1021486
05:00+4˚se71480100 0.0 1020492
08:00+4˚se8158099 0.0 1020516
11:00+5˚se8147577 0.0 1021641
14:00+6˚se8136975 0.0 1019604
17:00+4˚se7158448 0.0 1019479
20:00+2˚se7139460 0.0 1021460
5 december, sat
sat523:00+2˚sse71196100 0.0 1021539
02:00+3˚se71292100 0.0 1021500
05:00+4˚se6129395 0.0 1021478
08:00+4˚sse6109597 0.0 1022485
11:00+4˚se71192100 0.0 1023490
14:00+5˚se71185100 0.0 1023543
17:00+4˚se7118899 0.0 1023457
20:00+3˚se6129097 0.0 1024437